{"data":{"norad_id":63038,"intl_designator":"2025-034K","name":"STARLINK-32812","alt_names":[],"object_type":"PAYLOAD","status":"ACTIVE","operator":null,"country":"US","launch_date":"2025-02-18","launch_site_code":"AFETR","launch_vehicle":null,"mission":null,"orbit_class":"UNKNOWN","rcs_meters":null,"size_class":null,"mass_kg":null,"dimensions":null,"purposes":["comms"],"wikipedia_slug":null,"has_3d_model":false,"image_url":null,"decayed_at":null,"tle_current":{"epoch":"2026-05-25T03:54:24.624000Z","epoch_age_seconds":61323,"freshness":"FRESH","line1":"1 63038U 25034K   26145.16278500  .00283139  00000+0  91467-2 0  9995","line2":"2 63038  53.1581 263.0202 0007546 153.7919 206.3465 15.30421520 70799","mean_motion":15.3042152,"eccentricity":0.0007546,"inclination_deg":53.1581,"raan_deg":263.0202,"arg_perigee_deg":153.7919,"mean_anomaly_deg":206.3465,"bstar":0.0091467,"rev_number":7079,"period_min":94.09172448124,"perigee_km":469.38268998526,"apogee_km":479.7247708356,"semimajor_km":6852.6907304104,"source":"CELESTRAK","updated_at":"2026-05-25T13:38:19.867064Z"}}}